Indianapolis, IN

7:10 PM EDT on September 22, 2019 (GMT -0400)
Indianapolis International

Weather History for KIND - August, 2019

Change the Weather History Date:

Sunday, August 25, 2019

  Actual Average Record
Temperature  
Mean Temperature 71 °F 74 °F  
Max Temperature 81 °F 84 °F 96 °F (1948)
Min Temperature 60 °F 64 °F 49 °F (1887)
Degree Days  
Heating Degree Days 0 0  
Month to date heating degree days 0 0  
Since 1 June heating degree days 9 17  
Since 1 July heating degree days 0 1  
Cooling Degree Days 6 9  
Month to date cooling degree days 273 241  
Year to date cooling degree days 1002 874  
Since 1 June cooling degree days 891 790  
Growing Degree Days 20 (Base 50)    
Moisture  
Dew Point 56 °F    
Average Humidity 60    
Maximum Humidity 78    
Minimum Humidity 42    
Precipitation  
Precipitation 0.00 in 0.10 in 1.41 in (1962)
Month to date precipitation 2.24 2.52  
Year to date precipitation 35.25 28.72  
Snow  
Snow 0.00 in 0.00 in 0.00 in ()
Month to date snowfall 0.0 0.0  
Since 1 June snowfall 0.0 0.0  
Since 1 July snowfall 0.0 0.0  
Snow Depth 0.00 in    
Sea Level Pressure  
Sea Level Pressure 30.05 in    
Wind  
Wind Speed 11 mph (East)    
Max Wind Speed 18 mph    
Max Gust Speed 24 mph    
Visibility 10 miles    
Events      
T = Trace of Precipitation, MM = Missing Value Source: NWS Daily Summary

Daily Weather History Graph

Daily Weather History Graph

Search for Another Location

Airport or City:

Astronomy

Aug. 25, 2019 Rise Set
Actual Time 7:06 AM EDT 8:27 PM EDT
Civil Twilight 6:38 AM EDT 8:55 PM EDT
Nautical Twilight 6:04 AM EDT 9:29 PM EDT
Astronomical Twilight 5:29 AM EDT 10:04 PM EDT
Moon 1:41 AM EDT (8/25) 4:47 PM EDT (8/25)
Length of Visible Light 14h 17m
Length of Day
13h 20m
Waning Crescent, 29% of the Moon is Illuminated
Aug 25
Waning Crescent
Aug 30
New
Sep 5
First Quarter
Sep 14
Full
Sep 21
Last Quarter

Hourly Weather History & Observations

Time (EDT) Temp. Heat Index Dew Point Humidity Pressure Visibility Wind Dir Wind Speed Gust Speed Precip Events Conditions
12:54 AM 64.9 °F - 57.0 °F 75% 30.14 in 10.0 mi ENE 11.5 mph - N/A   Partly Cloudy
1:54 AM 64.0 °F - 55.9 °F 75% 30.14 in 10.0 mi East 11.5 mph - N/A   Clear
2:54 AM 63.0 °F - 55.9 °F 78% 30.11 in 10.0 mi ENE 11.5 mph - N/A   Partly Cloudy
3:54 AM 62.1 °F - 55.0 °F 78% 30.11 in 10.0 mi ENE 10.4 mph - N/A   Partly Cloudy
4:54 AM 62.1 °F - 54.0 °F 75% 30.10 in 10.0 mi East 10.4 mph - N/A   Partly Cloudy
5:54 AM 61.0 °F - 54.0 °F 78% 30.09 in 10.0 mi East 11.5 mph - N/A   Partly Cloudy
6:54 AM 60.1 °F - 53.1 °F 78% 30.10 in 10.0 mi East 8.1 mph - N/A   Scattered Clouds
7:54 AM 61.0 °F - 53.1 °F 75% 30.11 in 10.0 mi East 9.2 mph - N/A   Mostly Cloudy
8:54 AM 63.0 °F - 53.1 °F 70% 30.10 in 10.0 mi East 10.4 mph - N/A   Mostly Cloudy
9:54 AM 66.9 °F - 54.0 °F 63% 30.09 in 10.0 mi East 9.2 mph - N/A   Mostly Cloudy
10:54 AM 70.0 °F - 57.9 °F 65% 30.09 in 10.0 mi ESE 11.5 mph - N/A   Mostly Cloudy
11:54 AM 73.9 °F - 59.0 °F 59% 30.09 in 10.0 mi East 10.4 mph - N/A   Mostly Cloudy
12:54 PM 75.9 °F - 57.9 °F 54% 30.06 in 10.0 mi East 16.1 mph 21.9 mph N/A   Mostly Cloudy
1:54 PM 79.0 °F - 57.9 °F 48% 30.04 in 10.0 mi SE 11.5 mph 21.9 mph N/A   Scattered Clouds
2:54 PM 79.0 °F - 55.9 °F 45% 30.02 in 10.0 mi ESE 13.8 mph - N/A   Scattered Clouds
3:54 PM 79.0 °F - 55.9 °F 45% 30.01 in 10.0 mi ESE 11.5 mph - N/A   Scattered Clouds
4:54 PM 80.1 °F 80.4 °F 57.0 °F 45% 29.98 in 10.0 mi ESE 9.2 mph 18.4 mph N/A   Scattered Clouds
5:54 PM 80.1 °F 80.1 °F 55.0 °F 42% 29.96 in 10.0 mi ESE 10.4 mph - N/A   Mostly Cloudy
6:54 PM 78.1 °F - 55.9 °F 46% 29.96 in 10.0 mi ESE 12.7 mph - N/A   Mostly Cloudy
7:54 PM 77.0 °F - 57.0 °F 50% 29.96 in 10.0 mi East 8.1 mph - N/A   Mostly Cloudy
8:54 PM 75.0 °F - 57.9 °F 55% 29.96 in 10.0 mi East 8.1 mph - N/A   Mostly Cloudy
9:54 PM 75.0 °F - 59.0 °F 57% 29.97 in 10.0 mi East 8.1 mph - N/A   Mostly Cloudy
10:54 PM 73.0 °F - 59.0 °F 61% 29.97 in 10.0 mi East 11.5 mph - N/A   Mostly Cloudy
11:54 PM 72.0 °F - 59.0 °F 64% 29.95 in 10.0 mi ESE 11.5 mph - N/A   Mostly Cloudy